Location: Strawberry
(45.6646°N, 111.9596°W)
Time: 20:33:18
(UTC+00:00)

Courier 1B - Pass Details

Date: 10 October 2022
Orbit: 962 x 1209 km, 28.3° (Epoch: 29 November)

Event Time Altitude Azimuth Distance (km) Brightness Sun altitude
Rises 17:38:45 0° 208° (SSW) 4,094 11.2 33.3°
Reaches altitude 10° 17:43:47 10° 181° (S) 3,137 11.2 33.7°
Maximum altitude 17:46:39 12° 159° (SSE) 2,958 11.6 33.9°
Drops below altitude 10° 17:49:30 10° 137° (SE) 3,124 11.4 34.1°
Sets 17:54:28 0° 110° (ESE) 4,058 11.3 34.5°
